TimeEDT,TemperatureF,Dew PointF,Humidity,Sea Level PressureIn,VisibilityMPH,Wind Direction,Wind SpeedMPH,Gust SpeedMPH,PrecipitationIn,Events,Conditions,WindDirDegrees,DateUTC
12:54 AM,33.1,26.1,75,30.02,10.0,SSW,3.5,-,N/A,,Clear,210,2013-10-22 04:54:00
1:54 AM,30.9,27.0,85,30.02,10.0,Calm,Calm,-,N/A,,Clear,0,2013-10-22 05:54:00
2:54 AM,28.9,27.0,92,30.04,10.0,Calm,Calm,-,N/A,,Clear,0,2013-10-22 06:54:00
3:54 AM,27.0,26.1,96,30.04,10.0,Calm,Calm,-,N/A,,Clear,0,2013-10-22 07:54:00
4:54 AM,27.0,25.0,92,30.03,10.0,Calm,Calm,-,N/A,,Clear,0,2013-10-22 08:54:00
5:54 AM,27.0,26.1,96,30.04,10.0,Calm,Calm,-,N/A,,Clear,0,2013-10-22 09:54:00
6:54 AM,27.0,26.1,96,30.04,10.0,Calm,Calm,-,N/A,,Clear,0,2013-10-22 10:54:00
7:54 AM,27.0,25.0,92,30.04,10.0,Calm,Calm,-,N/A,,Clear,0,2013-10-22 11:54:00
8:54 AM,28.0,26.1,92,30.05,10.0,Calm,Calm,-,N/A,,Clear,0,2013-10-22 12:54:00
9:54 AM,34.0,28.0,79,30.04,10.0,Calm,Calm,-,N/A,,Clear,0,2013-10-22 13:54:00
10:54 AM,39.9,30.0,68,30.04,10.0,WSW,5.8,-,N/A,,Clear,250,2013-10-22 14:54:00
11:54 AM,45.0,28.0,52,30.01,10.0,WSW,6.9,-,N/A,,Clear,240,2013-10-22 15:54:00
12:54 PM,48.0,28.0,46,29.98,10.0,SSW,6.9,-,N/A,,Scattered Clouds,210,2013-10-22 16:54:00
1:54 PM,46.9,28.0,48,29.96,10.0,West,5.8,-,N/A,,Overcast,270,2013-10-22 17:54:00
2:54 PM,44.1,32.0,63,29.94,10.0,NW,3.5,-,0.00,Rain,Light Rain,310,2013-10-22 18:54:00
3:54 PM,42.1,36.0,79,29.94,9.0,NW,3.5,-,0.00,Rain,Light Rain,310,2013-10-22 19:54:00
4:54 PM,42.1,37.0,82,29.93,10.0,NE,5.8,-,0.00,,Overcast,40,2013-10-22 20:54:00
5:46 PM,41.0,35.6,81,29.90,10.0,ENE,6.9,-,0.00,Rain,Light Rain,60,2013-10-22 21:46:00
5:54 PM,41.0,36.0,82,29.92,10.0,NE,8.1,-,0.00,Rain,Light Rain,50,2013-10-22 21:54:00
6:54 PM,39.9,36.0,86,29.92,8.0,ENE,9.2,-,0.00,Rain,Light Rain,70,2013-10-22 22:54:00
7:12 PM,39.2,35.6,87,29.90,9.0,ENE,9.2,-,0.00,Rain,Light Rain,70,2013-10-22 23:12:00
7:54 PM,39.0,36.0,89,29.91,7.0,ENE,10.4,-,0.01,Rain,Light Rain,70,2013-10-22 23:54:00
8:07 PM,39.2,35.6,87,29.89,10.0,ENE,12.7,-,0.00,,Overcast,70,2013-10-23 00:07:00
8:54 PM,37.9,36.0,93,29.91,7.0,ENE,9.2,-,0.00,Rain,Light Rain,60,2013-10-23 00:54:00
9:05 PM,37.4,35.6,93,29.88,6.0,ENE,11.5,-,0.00,Rain,Light Rain,70,2013-10-23 01:05:00
9:54 PM,37.0,35.1,93,29.90,4.0,ENE,12.7,20.7,0.04,Rain,Light Rain,70,2013-10-23 01:54:00
10:54 PM,36.0,34.0,93,29.90,5.0,NE,12.7,-,0.08,Rain,Light Rain,40,2013-10-23 02:54:00
11:54 PM,34.0,33.1,96,29.90,6.0,NE,6.9,-,0.03,Rain,Light Rain,40,2013-10-23 03:54:00